Sidney, NE

3:23 PM MST on December 07, 2016 (GMT -0700)
Sidney Municipal

Weather History for KSNY - October, 2011

Change the Weather History Date:

Tuesday, October 18, 2011

  Actual Average Record
Temperature  
Mean Temperature 43 °F 49 °F  
Max Temperature 57 °F 64 °F 85 °F (2003)
Min Temperature 29 °F 35 °F 19 °F (1996)
Degree Days  
Heating Degree Days 22 16  
Month to date heating degree days 190 229  
Since 1 July heating degree days 303 369  
Cooling Degree Days 0 0  
Month to date cooling degree days 7 1  
Year to date cooling degree days 956 827  
Moisture  
Dew Point 26 °F    
Average Humidity 55    
Maximum Humidity 82    
Minimum Humidity 28    
Precipitation  
Precipitation 0.00 in 0.03 in 2.39 in (1965)
Month to date precipitation 0.68 0.70  
Year to date precipitation 26.35 17.11  
Sea Level Pressure  
Sea Level Pressure 30.32 in    
Wind  
Wind Speed 14 mph (NW)    
Max Wind Speed 28 mph    
Max Gust Speed 36 mph    
Visibility 10 miles    
Events      
T = Trace of Precipitation, MM = Missing Value Source: NWS Daily Summary

Daily Weather History Graph

Daily Weather History Graph

Search for Another Location

Airport or City:

Trip Planner

Search our weather history database for the weather conditions in past years. The results will help you decide how hot, cold, wet, or windy it might be!

Date:

Astronomy

Oct. 18, 2011 Rise Set
Actual Time 7:06 AM MDT 6:07 PM MDT
Civil Twilight 6:38 AM MDT 6:34 PM MDT
Nautical Twilight 6:06 AM MDT 7:06 PM MDT
Astronomical Twilight 5:34 AM MDT 7:38 PM MDT
Moon 10:48 PM MDT (10/18) 1:00 PM MDT (10/18)
Length of Visible Light 11h 56m
Length of Day
11h 00m
Waning Gibbous, 64% of the Moon is Illuminated
Oct 18
Waning Gibbous
Oct 19
Last Quarter
Oct 26
New
Nov 2
First Quarter
Nov 10
Full

Hourly Weather History & Observations

Time (MDT) Temp. Windchill Dew Point Humidity Pressure Visibility Wind Dir Wind Speed Gust Speed Precip Events Conditions
12:53 AM 34.0 °F 26.6 °F 28.9 °F 82% 30.27 in 10.0 mi WNW 9.2 mph - N/A   Clear
1:53 AM 35.1 °F 27.4 °F 28.9 °F 78% 30.28 in 10.0 mi WNW 10.4 mph - N/A   Clear
2:53 AM 36.0 °F 28.0 °F 28.9 °F 76% 30.29 in 10.0 mi WNW 11.5 mph - N/A   Clear
3:53 AM 34.0 °F 27.2 °F 27.0 °F 75% 30.31 in 10.0 mi NW 8.1 mph - N/A   Clear
4:53 AM 32.0 °F 24.2 °F 26.1 °F 79% 30.33 in 10.0 mi WNW 9.2 mph - N/A   Clear
6:53 AM 35.1 °F 27.4 °F 28.0 °F 76% 30.36 in 10.0 mi NW 10.4 mph - N/A   Clear
7:53 AM 36.0 °F 28.0 °F 28.0 °F 73% 30.40 in 10.0 mi NW 11.5 mph - N/A   Scattered Clouds
8:53 AM 43.0 °F 36.8 °F 32.0 °F 65% 30.39 in 10.0 mi NW 11.5 mph - N/A   Overcast
9:53 AM 48.0 °F - 28.9 °F 48% 30.38 in 10.0 mi NNW 16.1 mph - N/A   Clear
10:53 AM 52.0 °F - 24.1 °F 34% 30.36 in 10.0 mi NNW 20.7 mph - N/A   Clear
12:53 PM 54.0 °F - 27.0 °F 35% 30.32 in 10.0 mi NNW 19.6 mph 28.8 mph N/A   Overcast
1:53 PM 54.0 °F - 24.1 °F 31% 30.29 in 10.0 mi North 24.2 mph 29.9 mph N/A   Overcast
2:53 PM 54.0 °F - 26.1 °F 34% 30.28 in 10.0 mi NNW 24.2 mph 29.9 mph N/A   Overcast
3:53 PM 54.0 °F - 24.1 °F 31% 30.28 in 10.0 mi NNW 23.0 mph 29.9 mph N/A   Mostly Cloudy
4:53 PM 54.0 °F - 23.0 °F 30% 30.28 in 10.0 mi NNW 18.4 mph - N/A   Clear
5:53 PM 51.1 °F - 19.9 °F 29% 30.28 in 10.0 mi NNW 16.1 mph - N/A   Clear
7:53 PM 37.9 °F 32.1 °F 21.9 °F 53% 30.32 in 10.0 mi NW 8.1 mph - N/A   Clear
8:53 PM 37.9 °F 30.9 °F 21.9 °F 53% 30.30 in 10.0 mi NNW 10.4 mph - N/A   Clear
9:53 PM 36.0 °F 29.0 °F 23.0 °F 59% 30.31 in 10.0 mi NNW 9.2 mph - N/A   Clear
10:53 PM 36.0 °F 29.6 °F 24.1 °F 62% 30.30 in 10.0 mi NNW 8.1 mph - N/A   Clear
11:53 PM 32.0 °F 24.2 °F 23.0 °F 69% 30.31 in 10.0 mi NW 9.2 mph - N/A   Clear